Regional Weather Roundup
Issued by NWS

Home | Current Version | Previous Version | Graphics & Text | Print | Product List | Glossary On
Versions: 1 2 3 4 5 6 7 8 9 10 11 12 13 14 15 16 17 18 19 20 21 22 23 24 25 26 27 28 29 30 31 32 33 34 35 36 37 38 39 40 41 42 43 44 45 46 47 48 49 50
000
ASUS43 KMKX 231600
RWRWI

WISCONSIN REGIONAL WEATHER ROUNDUP
NATIONAL WEATHER SERVICE MILWAUKEE/SULLIVAN WI
1100 AM CDT TUE MAY 23 2017

NOTE: "FAIR" INDICATES FEW OR NO CLOUDS BELOW 12,000 FEET WITH NO
SIGNIFICANT WEATHER AND/OR OBSTRUCTIONS TO VISIBILITY.

WIZ001-002-006>008-014>016-023>028-231700-
NORTHWEST WISCONSIN

CITY           SKY/WX    TMP DP  RH WIND       PRES   REMARKS
SUPERIOR ARPT  NOT AVBL
ASHLAND        CLOUDY    50  46  86 N10       29.88S
HAYWARD        CLOUDY    52  48  86 N7        29.86R
SIREN          CLOUDY    53  45  73 NE3       29.86R
CUMBERLAND     CLOUDY    52  43  71 NE7       29.84S
RICE LAKE      CLOUDY    51  48  87 N7        29.85R
CHETEK         CLOUDY    52  49  89 CALM      29.83S
LADYSMITH      CLOUDY    54  47  75 E6        29.85S
EAU CLAIRE     NOT AVBL
MENOMONIE      CLOUDY    53  49  86 N6        29.82S
NEW RICHMOND   CLOUDY    54  46  74 NE7       29.84R
OSCEOLA        CLOUDY    55  52  90 N5        29.86F
$$

WIZ003>005-009-010-017-018-231700-
NORTH CENTRAL WISCONSIN

CITY           SKY/WX    TMP DP  RH WIND       PRES   REMARKS
MANITOWISH WTR LGT RAIN  48  48 100 CALM      29.86R
ARBOR VITAE    RAIN      49  47  93 E3        29.85S
WOODRUFF       RAIN      49  47  93 E3        29.85S
RHINELANDER    CLOUDY    50  47  89 VRB3      29.85F
EAGLE RIVER    CLOUDY    47  46  96 CALM      29.85S
LAND O LAKES   CLOUDY    49  46  92 CALM      29.88S
PHILLIPS       CLOUDY    51  46  82 E6        29.84S
TOMAHAWK       CLOUDY    47  46  96 NE3       29.84F
MEDFORD        CLOUDY    47  46  93 NE8       29.81S
MERRILL        CLOUDY    51  48  90 NE7       29.83F
$$

WIZ029-030-035-036-043>047-231700-
CENTRAL WISCONSIN

CITY           SKY/WX    TMP DP  RH WIND       PRES   REMARKS
WAUSAU         CLOUDY    53  44  71 NE8       29.80S
MOSINEE        CLOUDY    54  46  76 NE15      29.81R
MARSHFIELD     CLOUDY    54  46  74 NE14      29.78S
STEVENS POINT  CLOUDY    51  46  82 NE10      29.80S
WAUPACA        CLOUDY    58  49  71 NE5       29.79S
WAUTOMA        CLOUDY    58  54  86 NE7       29.77S
WISC RAPIDS    CLOUDY    56  49  77 E7        29.79S
CAMP DOUGLAS   CLOUDY    54  54 100 N6        29.77S
$$

WIZ011>013-019>022-031-037>040-048>050-231700-
NORTHEAST WISCONSIN

CITY           SKY/WX    TMP DP  RH WIND       PRES   REMARKS
ANTIGO         CLOUDY    50  46  85 NE10      29.83F
SHAWANO        CLOUDY    54  47  77 NE12      29.82S
OCONTO         CLOUDY    52  46  79 NE6       29.81F
STURGEON BAY   CLOUDY    52  46  80 NE7       29.83S
GREEN BAY      CLOUDY    55  50  83 NE17      29.80S
MANITOWOC      NOT AVBL
APPLETON       NOT AVBL
CLINTONVILLE   CLOUDY    52  45  76 NE7       29.81R
OSHKOSH        CLOUDY    59  54  83 NE7       29.77S
$$

WIZ032>034-041-042-053>061-231700-
SOUTHWEST WISCONSIN

CITY           SKY/WX    TMP DP  RH WIND       PRES   REMARKS
LA CROSSE      CLOUDY    59  53  80 N7        29.76S
SPARTA         CLOUDY    54  50  89 N5        29.78R
VIROQUA        PTSUNNY   55  51  85 MISG      29.76S
BOSCOBEL       CLOUDY    58  53  84 CALM      29.76F
PRAIRIE DU CHI CLOUDY    58  51  79 SW6       29.76F
PLATTEVILLE    CLOUDY    56  54  94 W5        29.77F
$$

WIZ056-057-062-063-064-067-068-231700-
SOUTH CENTRAL WISCONSIN

CITY           SKY/WX    TMP DP  RH WIND       PRES   REMARKS
REEDSBURG      CLOUDY    55  55  99 NW5       29.76R
BARABOO/DELLS  CLOUDY    57  52  81 SW8       29.76S
LONE ROCK      CLOUDY    59  53  80 NW3       29.76F
MINERAL POINT  CLOUDY    55  54  94 CALM      29.77S
MADISON        CLOUDY    60  53  77 VRB3      29.76S
MIDDLETON      PTSUNNY   61  53  76 S7        29.76S
WATERTOWN      CLOUDY    59  56  88 S6        29.77S
MONROE         CLOUDY    59  52  77 SW6       29.77S
JANESVILLE     PTSUNNY   61  55  82 SW6       29.77S
$$

WIZ051-052-058>065-066-070>072-231700-
SOUTHEAST WISCONSIN

CITY           SKY/WX    TMP DP  RH WIND       PRES   REMARKS
MILWAUKEE      CLOUDY    63  55  75 S13       29.78S
WAUKESHA       NOT AVBL
MILWAUKEE/TIMM CLOUDY    63  52  67 SW8       29.78F
RACINE         CLOUDY    62  53  72 SW12      29.80S
KENOSHA        CLOUDY    61  53  75 SW8       29.79S
FOND DU LAC    CLOUDY    63  52  67 CALM      29.76F
SHEBOYGAN      CLOUDY    57  52  83 E7        29.78S
WEST BEND      CLOUDY    63  55  77 S3        29.77F
JUNEAU         CLOUDY    60  54  80 SW7       29.77F
$$

LSZ147-162-231700-
LAKE SUPERIOR

STATION/POSITION TIME  TEMP    WIND        PRES    WAVE
                       AIR SEA DIR/SP/G            HT/PER
                 (UTC) (F)     (DEG/KT/KT) (MB)    (FT/S)
W MID LAKE BUOY  1450   39 37   20/  8/  8 1012.6R   0
DEVILS ISLAND    1500   42      70/ 11/ 13 1012.8R
PORT WING        1540   43      30/ 12/ 15 1012.2R
SAXON HARBOR     1530   43     300/  2/  2 1011.9R
$$

LMZ867-665-643>646-231700-
LAKE MICHIGAN

STATION/POSITION TIME  TEMP    WIND        PRES    WAVE
                       AIR SEA DIR/SP/G            HT/PER
                 (UTC) (F)     (DEG/KT/KT) (MB)    (FT/S)
CHAMBERS ISLAND  1540   47      20/ 10/ 12 1010.2F
N MID LAKE BUOY  1450   40 39   50/  6/  8 1011.6S   1/ 4
NORTHPORT PIER   1540   48      90/  3/  5 1010.5F
KEWAUNEE LAKESHO 1530   46      30/ 12/ 14 1009.3R
SHEBOYGAN LAKESH 1500   46      30/  7/  8 1008.7S
PORT WASHINGTON  1530   52      90/  1/  2 1009.5S
ATWATER BUOY     1409   50     150/  4/  6 1008.6F
MILWAUKEE LAKESH 1530   61     220/  8/ 10   N/A
S MID LAKE BUOY  1450   48 45  180/ 10/ 12 1009.6F   1
KENOSHA   LAKESH 1500   61     220/ 11/ 14 1009.1
$$

TC  - TEMPERATURE IN CELSIUS
VSB - VISIBILITY IN STATUTE MILES
WCI - WIND CHILL INDEX
HX  - HEAT INDEX





USA.gov is the U.S. government's official web portal to all federal, state and local government web resources and services.